566  
ASUS42 KILM 190814  
RWRILM  
RWRILM  
REGIONAL HOURLY WEATHER ROUNDUP  
NATIONAL WEATHER SERVICE WILMINGTON NC  
400 AM EDT THU SEP 19 2019  
 
NOTE: "FAIR" INDICATES FEW OR NO CLOUDS BELOW 12,000 FEET WITH NO  
SIGNIFICANT WEATHER AND/OR S TO VISIBILITY
.  
   
..............WFO WILMINGTON COUNTY WARNING AREA............
 
 
   
.....COASTAL NC AND SC COUNTIES...
 
 
 
CITY SKY/WX TMP DP RH WIND PRES REMARKS
 
WILMINGTON FAIR 62 55 77 N7 30.17R  
N MYRTLE BEACH FAIR 61 55 81 N6 30.16S  
MYRTLE BEACH FAIR 62 55 77 N8 30.17R  
   
.....INLAND NC AND SC COUNTIES....
 
 
 
CITY SKY/WX TMP DP RH WIND PRES REMARKS
 
LUMBERTON NOT AVBL  
ELIZABETHTOWN NOT AVBL  
WHITEVILLE NOT AVBL  
FLORENCE FAIR 60 54 80 N7 30.19S  
DARLINGTON FAIR 58 55 90 N5 30.21R  
KINGSTREE FAIR 59 55 88 CALM 30.18R  
HARTSVILLE FAIR 59 54 82 NE6 30.21R  
BENNETTSVILLE FAIR 55 54 94 N3 30.20S  
CONWAY NOT AVBL  
GEORGETOWN FAIR 61 52 72 N6 30.15F  
MARION FAIR 55 54 94 N3 30.19S  
   
...................REST OF NORTH CAROLINA...................
 
 
   
........EASTERN NC......
 
 
 
CITY SKY/WX TMP DP RH WIND PRES REMARKS
 
CAPE HATTERAS CLOUDY N/A N/A N/A NE10G22 30.14R  
JACKSONVILLE FAIR 56 53 90 CALM 30.19R  
MOREHEAD CITY FAIR 64 55 72 NE8 30.15R  
KENANSVILLE FAIR 57 55 94 CALM 30.20S  
NEW BERN FAIR 59 56 89 N7 30.18S  
ELIZABETH CITY FAIR 65 54 67 N13 30.19S  
   
........CENTRAL NC......
 
 
 
CITY SKY/WX TMP DP RH WIND PRES REMARKS
 
RALEIGH DURHAM FAIR 55 54 96 NE5 30.24R  
ROCKY MOUNT FAIR 56 55 97 NE3 30.22S  
ROANOKE RAPIDS NOT AVBL  
FAYETTEVILLE FAIR 57 53 86 N7 30.20S  
HOFFMAN FAIR 55 53 94 N3 30.21S  
   
........WESTERN NC......
 
 
 
CITY SKY/WX TMP DP RH WIND PRES REMARKS
 
CHARLOTTE FAIR 65 53 65 E9 30.23R  
GREENSBORO FAIR 59 55 87 CALM 30.24S  
HICKORY NOT AVBL  
BOONE NOT AVBL  
ASHEVILLE NOT AVBL  
   
....................REST OF SOUTH CAROLINA..................
 
 
   
........EASTERN SC......
 
 
 
CITY SKY/WX TMP DP RH WIND PRES REMARKS
 
CHARLESTON FAIR 65 56 72 NE10 30.13S  
BEAUFORT MCAS FAIR 69 60 73 NE8 30.11F  
HILTON HEAD FAIR 73 63 68 NE14 30.11S  
   
........CENTRAL SC......
 
 
 
CITY SKY/WX TMP DP RH WIND PRES REMARKS
 
COLUMBIA FAIR 69 53 56 E7 30.18R  
ORANGEBURG FAIR 66 52 60 NE6 30.16S  
SUMTER SHAW FAIR 62 53 73 NE8 30.18S  
   
........WESTERN SC......
 
 
 
CITY SKY/WX TMP DP RH WIND PRES REMARKS
 
GREENVILLE NOT AVBL  
ROCK HILL FAIR 65 52 62 SE7 30.23R  
ANDERSON CLOUDY 71 59 65 E9 30.18S  
CLEMSON NOT AVBL  
GREENWOOD CLOUDY 69 57 65 E3 30.19S  
 
   
..................COASTAL AND OFFSHORE REPORTS...............
 
 
   
...............LOCAL PIERS AND NC RESERVE.............
 
 
 
STATION/POSITION TIME SKY/WX TEMP WIND PRES VSBY
 
AIR SEA DIR/SP/G  
(UTC) (F) (DEG/KT/KT) (MB) (MI)  
JOHNY MRCER PIER 0730 63 78 10/ 12/ 15 1020.4F  
NC RESRV MASNBRO NOT AVBL  
OCEAN CREST PIER NOT AVBL  
SPRINGMAID PIER 0730 64 N/A  
 
   
...............COASTAL AND OFFSHORE BUOYS.............
 
 
 
STATION/POSITION TIME SKY/WX TEMP WIND PRES VSBY
 
AIR SEA DIR/SP/G  
(UTC) (F) (DEG/KT/KT) (MB) (MI)  
DIMNDSHOAL 41025 0800 71 74 20/ 23/ 31 1019.5  
CAPE LOOKOUT 0800 67 20/ 21/ 25 1020.6R  
ONSLOW BAY 41036 NOT AVBL  
ONSLOW BAY 41064 0708 72 81 50/ 21/ 31 1019.7F  
ONSLOW BAY 41159 0800 81 N/A  
WVE H/P(F/S)= 9/11 SWL H/P/D(F/S/D)= 5/100/11  
 
MASNBO INL 41110 0740 81 N/A  
WVE H/P(F/S)= 6/12 SWL H/P/D(F/S/D)= 2/100/12  
 
WILM HARBR 41108 0800 80 N/A  
WVE H/P(F/S)= 5/13 SWL H/P/D(F/S/D)= 3/170/13  
 
27SE WRITB 41037 0708 71 81 50/ 21/ 31 1018.4F  
FRYING PAN 41013 0800 74 81 30/ 21/ 27 1019.0  
SUNST NRSH 41024 NOT AVBL  
CAPRS NRSH 41029 NOT AVBL  
EDISTO 41004 0750 81 30/ 17/ 23 1018.9R  
WVE H/P(F/S)= 10/11 SWL H/P/D(F/S/D)= 7/ 90/11  
 
   
.........OFFSHORE BUOYS BEYOND 100 NM OFFSHORE........
 
   
....IN A TRIANGLE---HAT TO BERMUDA TO BAHAMAS TO HAT..
 
 
 
 
STATION/POSITION TIME SKY/WX TEMP WIND PRES VSBY
 
AIR SEA DIR/SP/G  
(UTC) (F) (DEG/KT/KT) (MB) (MI)  
150E HAT 41001 0800 81 20/ 17/ 25 1016.6  
W BERMUDA 41048 0800 80 10/ 21/ 29 1010.3  
ATLANTIC S 41049 0750 84 230/ 21/ 25 1010.5R  
WVE H/P(F/S)= 14/14 SWL H/P/D(F/S/D)= 13/310/14  
 
E BAHAMAS 41046 0800 82 85 350/ 4/ 6 1009.8  
NE BAHAMAS 41047 0800 80 84 20/ 12/ 17 1010.3  
120E CANVRL41010 0800 79 81 30/ 21/ 27 1015.0  
 
END  
 
 
CLICK HERE TO GO TO PREVIOUS BULLETINS.

The Nexlab NC Page
The Nexlab SC Page Main Text Page